Weather History for Whitefield, NH

Change the Weather History Date:

Wednesday, September 4, 2013

  Actual Average Record
Temperature  
Mean Temperature 65 °F -  
Max Temperature 72 °F 72 °F 91 °F (1999)
Min Temperature 57 °F 42 °F 35 °F (2000)
Growing Degree Days 15 (Base 50)    
Moisture  
Dew Point 55 °F    
Average Humidity 76    
Maximum Humidity 90    
Minimum Humidity 45    
Precipitation  
Precipitation 0.14 in - - ()
Sea Level Pressure  
Sea Level Pressure 29.87 in    
Wind  
Wind Speed 3 mph (SW)    
Max Wind Speed 12 mph    
Max Gust Speed 20 mph    
Visibility 9 miles    
Events Rain    
Averages and records for this station are not official NWS values.
T = Trace of Precipitation, MM = Missing Value Source: NWS Daily Summary

Daily Weather History Graph

Daily Weather History Graph

Search for Another Location

Airport:

Trip Planner

Search our weather history database for the weather conditions in past years. The results will help you decide how hot, cold, wet, or windy it might be!

Date:

Astronomy

Sep. 04, 2013 Rise Set
Actual Time 6:12 AM EDT 7:16 PM EDT
Civil Twilight 5:42 AM EDT 7:46 PM EDT
Nautical Twilight 5:07 AM EDT 8:21 PM EDT
Astronomical Twilight 4:29 AM EDT 8:59 PM EDT
Moon 5:21 AM EDT (9/4) 6:33 PM EDT (9/4)
Length of Visible Light 14h 03m
Length of Day
13h 04m
Waning Crescent, 1% of the Moon is Illuminated
Sep 4
Waning Crescent
Sep 5
New
Sep 12
First Quarter
Sep 19
Full
Sep 26
Last Quarter

Hourly Weather History & Observations

Time (EDT) Temp. Dew Point Humidity Pressure Visibility Wind Dir Wind Speed Gust Speed Precip Events Conditions
12:29 AM 60.8 °F 57.2 °F 88% 29.81 in 10.0 mi Calm Calm - N/A   Overcast
12:36 AM 62.6 °F 57.2 °F 82% 29.82 in 10.0 mi SSW 4.6 mph - N/A   Overcast
12:52 AM 62.1 °F 57.0 °F 84% 29.81 in 10.0 mi SSW 3.5 mph - N/A   Overcast
1:52 AM 61.0 °F 57.0 °F 87% 29.81 in 10.0 mi Calm Calm - N/A   Overcast
2:52 AM 62.1 °F 55.9 °F 80% 29.81 in 10.0 mi SW 6.9 mph - N/A   Overcast
3:52 AM 62.1 °F 55.0 °F 78% 29.82 in 10.0 mi West 3.5 mph - N/A   Overcast
4:52 AM 61.0 °F 55.9 °F 83% 29.84 in 10.0 mi SSW 3.5 mph - N/A   Overcast
5:52 AM 61.0 °F 55.0 °F 81% 29.85 in 10.0 mi SSW 3.5 mph - N/A   Overcast
6:11 AM 60.8 °F 55.4 °F 82% 29.86 in 10.0 mi Calm Calm - N/A   Overcast
6:50 AM 59.0 °F 55.4 °F 88% 29.86 in 10.0 mi SW 3.5 mph - N/A   Partly Cloudy
6:52 AM 59.0 °F 55.0 °F 87% 29.86 in 10.0 mi SW 3.5 mph - N/A   Partly Cloudy
7:52 AM 62.1 °F 55.0 °F 78% 29.86 in 10.0 mi SW 4.6 mph - N/A   Clear
8:52 AM 64.9 °F 54.0 °F 68% 29.87 in 10.0 mi WSW 5.8 mph - N/A   Clear
9:52 AM 66.9 °F 53.1 °F 61% 29.87 in 10.0 mi SSW 8.1 mph - N/A   Clear
10:52 AM 68.0 °F 51.1 °F 55% 29.87 in 10.0 mi SW 8.1 mph - N/A   Clear
11:52 AM 70.0 °F 52.0 °F 53% 29.86 in 10.0 mi Variable 6.9 mph - N/A   Clear
12:52 PM 71.1 °F 48.9 °F 45% 29.86 in 10.0 mi West 11.5 mph 19.6 mph N/A   Mostly Cloudy
1:52 PM 68.0 °F 50.0 °F 52% 29.88 in 10.0 mi West 5.8 mph - N/A   Mostly Cloudy
2:52 PM 70.0 °F 53.1 °F 55% 29.87 in 10.0 mi WSW 5.8 mph - N/A   Mostly Cloudy
3:52 PM 68.0 °F 54.0 °F 61% 29.87 in 10.0 mi WSW 4.6 mph - N/A   Overcast
4:52 PM 66.9 °F 55.0 °F 66% 29.87 in 10.0 mi Calm Calm - N/A   Overcast
5:52 PM 66.0 °F 60.1 °F 81% 29.88 in 10.0 mi Calm Calm - N/A   Overcast
6:52 PM 62.1 °F 55.9 °F 80% 29.90 in 4.0 mi NNW 4.6 mph - 0.00 in Rain Light Rain
7:52 PM 62.1 °F 57.0 °F 84% 29.91 in 10.0 mi Calm Calm - 0.00 in   Overcast
8:13 PM 62.6 °F 55.4 °F 77% 29.92 in 10.0 mi Calm Calm - 0.00 in Rain Light Rain
8:52 PM 62.1 °F 55.9 °F 80% 29.92 in 10.0 mi Variable 3.5 mph - 0.00 in   Overcast
9:16 PM 60.8 °F 57.2 °F 88% 29.93 in 6.0 mi SW 3.5 mph - 0.01 in Rain Light Rain
9:52 PM 60.1 °F 55.9 °F 86% 29.94 in 4.0 mi WSW 3.5 mph - 0.06 in Rain Light Rain
10:52 PM 59.0 °F 55.9 °F 90% 29.94 in 3.0 mi SSW 4.6 mph - 0.03 in Rain Light Rain
11:52 PM 57.9 °F 55.0 °F 90% 29.92 in 9.0 mi SSW 3.5 mph - 0.05 in Rain Light Rain